Retour au catalogue

ATLAS 5 CENTAUR DEB

ActifHEO
NORAD 43998·DEBRIS·🇺🇸 United States

Lancé Sep 17, 2014 depuis Cape Canaveral Space Force Station

Loading…

Prochains Passages (prochaines 24 heures)

TLE

VieillissantSource: Space-Track

Époque: Sep 2, 2026, 13:01 UTC

1 43998U 14055BD  26245.54274141 -.00000136  00000-0  00000+0 0  9995
2 43998  20.5227 124.0616 5050088 202.4464 123.9851  1.83525620 52740

Suivez ATLAS 5 CENTAUR DEB en temps réel avec AllMySat

Download on the App Store